When you browse on this site, cookies collect data to enhance your experience and personalize the content and advertising you see.
Visit our Privacy Policy to learn more. By continuing to use the site, you agree to this use of cookies and data.
  • In Portugal
  • List of Countries
  • For 7 days
  • Water Temperature
  • Satellite Maps
  • Weather Map
  • Weather Widgets
  • user-avatar
    Login

    Hourly Weather Brisbane

    Today, 13 December, Thursday

    Time Temperature Precipitation Wind Pressure Humidity
    00:00 +23°C° 0 mm 2 mps 757 mmHg 85%
    01:00 +23°C° 0 mm 2 mps 757 mmHg 86%
    02:00 +21°C° 0 mm 2 mps 756 mmHg 87%
    03:00 +21°C° 0 mm 2 mps 756 mmHg 88%
    04:00 +22°C° 0 mm 1 mps 755 mmHg 90%
    05:00 +23°C° 0 mm 2 mps 755 mmHg 84%
    06:00 +24°C° 0 mm 2 mps 756 mmHg 77%
    07:00 +25°C° 0 mm 2 mps 756 mmHg 70%
    08:00 +28°C° 0 mm 3 mps 756 mmHg 61%
    09:00 +30°C° 0 mm 3 mps 755 mmHg 52%
    10:00 +33°C° 0 mm 4 mps 755 mmHg 42%
    11:00 +34°C° 0 mm 4 mps 755 mmHg 41%
    12:00 +35°C° 0 mm 5 mps 754 mmHg 39%
    13:00 +36°C° 0 mm 5 mps 754 mmHg 37%
    14:00 +35°C° 0 mm 6 mps 753 mmHg 41%
    15:00 +34°C° 0 mm 7 mps 752 mmHg 44%
    16:00 +33°C° 0 mm 7 mps 751 mmHg 47%
    17:00 +32°C° 0 mm 7 mps 751 mmHg 54%
    18:00 +29°C° 0 mm 7 mps 751 mmHg 61%
    19:00 +27°C° 0 mm 7 mps 751 mmHg 67%
    20:00 +27°C° 0 mm 6 mps 751 mmHg 69%
    21:00 +26°C° 0 mm 6 mps 752 mmHg 72%
    22:00 +26°C° 0 mm 5 mps 753 mmHg 74%
    23:00 +26°C° 0.1 mm 5 mps 753 mmHg 77%

    Tomorrow, 14 December, Friday

    Time Temperature Precipitation Wind Pressure Humidity
    00:00 +25°C° 0.1 mm 4 mps 752 mmHg 80%
    01:00 +25°C° 0.1 mm 3 mps 752 mmHg 83%
    02:00 +25°C° 1 mm 4 mps 752 mmHg 85%
    03:00 +25°C° 1 mm 4 mps 752 mmHg 87%
    04:00 +25°C° 1 mm 5 mps 752 mmHg 88%
    05:00 +25°C° 1.2 mm 5 mps 752 mmHg 88%
    06:00 +26°C° 1.2 mm 5 mps 752 mmHg 87%
    07:00 +26°C° 1.2 mm 5 mps 752 mmHg 86%
    08:00 +28°C° 0 mm 5 mps 752 mmHg 80%
    09:00 +29°C° 0 mm 6 mps 752 mmHg 74%
    10:00 +30°C° 0 mm 6 mps 751 mmHg 67%
    11:00 +32°C° 0.2 mm 6 mps 751 mmHg 63%
    12:00 +33°C° 0.2 mm 7 mps 751 mmHg 58%
    13:00 +34°C° 0.2 mm 7 mps 751 mmHg 53%
    14:00 +34°C° 0.1 mm 7 mps 750 mmHg 54%
    15:00 +34°C° 0.1 mm 6 mps 750 mmHg 54%
    16:00 +34°C° 0.1 mm 6 mps 750 mmHg 55%
    17:00 +32°C° 0.5 mm 6 mps 750 mmHg 62%
    18:00 +30°C° 0.5 mm 5 mps 751 mmHg 70%
    19:00 +28°C° 0.5 mm 5 mps 751 mmHg 77%
    20:00 +28°C° 1.5 mm 5 mps 752 mmHg 81%
    21:00 +27°C° 1.5 mm 5 mps 752 mmHg 85%
    22:00 +26°C° 1.5 mm 5 mps 753 mmHg 89%
    23:00 +26°C° 3.2 mm 4 mps 752 mmHg 89%

    Day after tomorrow, 15 December, Saturday

    Time Temperature Precipitation Wind Pressure Humidity
    00:00 +26°C° 3.2 mm 4 mps 752 mmHg 89%
    01:00 +26°C° 3.2 mm 4 mps 752 mmHg 89%
    02:00 +26°C° 2.2 mm 4 mps 752 mmHg 89%
    03:00 +26°C° 2.2 mm 4 mps 752 mmHg 88%
    04:00 +26°C° 2.2 mm 3 mps 752 mmHg 88%
    05:00 +27°C° 0.8 mm 3 mps 753 mmHg 85%
    06:00 +27°C° 0.8 mm 3 mps 753 mmHg 82%
    07:00 +28°C° 0.8 mm 3 mps 754 mmHg 80%
    08:00 +29°C° 1 mm 3 mps 754 mmHg 76%
    09:00 +30°C° 1 mm 4 mps 754 mmHg 72%
    10:00 +32°C° 1 mm 4 mps 754 mmHg 68%
    11:00 +32°C° 0.4 mm 5 mps 754 mmHg 67%
    12:00 +32°C° 0.4 mm 5 mps 754 mmHg 66%
    13:00 +32°C° 0.4 mm 6 mps 754 mmHg 66%
    14:00 +32°C° 0.1 mm 6 mps 753 mmHg 66%
    15:00 +32°C° 0.1 mm 6 mps 753 mmHg 66%
    16:00 +32°C° 0.1 mm 6 mps 753 mmHg 66%
    17:00 +29°C° 0 mm 6 mps 754 mmHg 71%
    18:00 +28°C° 0 mm 5 mps 754 mmHg 77%
    19:00 +27°C° 0 mm 5 mps 755 mmHg 83%
    20:00 +27°C° 0 mm 5 mps 755 mmHg 85%
    21:00 +26°C° 0 mm 5 mps 756 mmHg 86%
    22:00 +26°C° 0 mm 4 mps 756 mmHg 88%
    23:00 +26°C° 0.1 mm 4 mps 756 mmHg 89%

    16 December, Sunday

    Time Temperature Precipitation Wind Pressure Humidity
    00:00 +26°C° 0.1 mm 4 mps 755 mmHg 90%
    01:00 +26°C° 0.1 mm 4 mps 755 mmHg 91%
    02:00 +26°C° 0.2 mm 4 mps 755 mmHg 91%
    03:00 +25°C° 0.2 mm 4 mps 755 mmHg 92%
    04:00 +25°C° 0.2 mm 4 mps 755 mmHg 92%
    05:00 +26°C° 0.3 mm 4 mps 756 mmHg 91%
    06:00 +26°C° 0.3 mm 5 mps 756 mmHg 90%
    07:00 +26°C° 0.3 mm 5 mps 757 mmHg 88%
    08:00 +27°C° 0.5 mm 5 mps 757 mmHg 86%
    09:00 +27°C° 0.5 mm 5 mps 757 mmHg 84%
    10:00 +27°C° 0.5 mm 5 mps 757 mmHg 82%
    11:00 +28°C° 0.3 mm 5 mps 756 mmHg 81%
    12:00 +28°C° 0.3 mm 5 mps 756 mmHg 79%
    13:00 +28°C° 0.3 mm 5 mps 756 mmHg 77%
    14:00 +28°C° 0.2 mm 5 mps 755 mmHg 79%
    15:00 +27°C° 0.2 mm 5 mps 755 mmHg 81%
    16:00 +27°C° 0.2 mm 5 mps 755 mmHg 83%
    17:00 +26°C° 0.8 mm 5 mps 755 mmHg 86%
    18:00 +26°C° 0.8 mm 5 mps 756 mmHg 88%
    19:00 +25°C° 0.8 mm 4 mps 756 mmHg 91%
    20:00 +25°C° 1 mm 4 mps 756 mmHg 91%
    21:00 +25°C° 1 mm 4 mps 756 mmHg 92%
    22:00 +25°C° 1 mm 4 mps 756 mmHg 92%
    23:00 +25°C° 0.5 mm 4 mps 756 mmHg 92%

    17 December, Monday

    Time Temperature Precipitation Wind Pressure Humidity
    00:00 +25°C° 0.5 mm 4 mps 755 mmHg 92%
    01:00 +25°C° 0.5 mm 4 mps 755 mmHg 92%
    02:00 +25°C° 0.2 mm 3 mps 755 mmHg 92%
    03:00 +24°C° 0.2 mm 3 mps 755 mmHg 93%
    04:00 +24°C° 0.2 mm 3 mps 755 mmHg 93%
    05:00 +25°C° 0.2 mm 3 mps 755 mmHg 92%
    06:00 +25°C° 0.2 mm 3 mps 755 mmHg 90%
    07:00 +26°C° 0.2 mm 4 mps 756 mmHg 88%
    08:00 +26°C° 0.6 mm 4 mps 756 mmHg 87%
    09:00 +27°C° 0.6 mm 3 mps 756 mmHg 85%
    10:00 +27°C° 0.6 mm 3 mps 756 mmHg 84%
    11:00 +28°C° 0.2 mm 4 mps 755 mmHg 79%
    12:00 +29°C° 0.2 mm 4 mps 755 mmHg 75%
    13:00 +30°C° 0.2 mm 4 mps 754 mmHg 71%
    14:00 +30°C° 0.1 mm 4 mps 754 mmHg 72%
    15:00 +29°C° 0.1 mm 4 mps 754 mmHg 72%
    16:00 +29°C° 0.1 mm 4 mps 754 mmHg 72%
    17:00 +28°C° 0.1 mm 4 mps 754 mmHg 78%
    18:00 +27°C° 0.1 mm 3 mps 755 mmHg 83%
    19:00 +26°C° 0.1 mm 3 mps 756 mmHg 88%
    20:00 +26°C° 0.1 mm 3 mps 756 mmHg 91%
    21:00 +25°C° 0.1 mm 2 mps 756 mmHg 93%
    22:00 +25°C° 0.1 mm 2 mps 757 mmHg 95%
    23:00 +25°C° 0.1 mm 2 mps 756 mmHg 95%

    18 December, Tuesday

    Time Temperature Precipitation Wind Pressure Humidity
    00:00 +25°C° 0.1 mm 2 mps 756 mmHg 95%
    01:00 +25°C° 0.1 mm 2 mps 755 mmHg 95%
    02:00 +25°C° 0.1 mm 2 mps 755 mmHg 95%
    03:00 +25°C° 0.1 mm 2 mps 755 mmHg 96%
    04:00 +25°C° 0.1 mm 2 mps 755 mmHg 96%
    05:00 +26°C° 0 mm 2 mps 756 mmHg 92%
    06:00 +26°C° 0 mm 2 mps 756 mmHg 89%
    07:00 +27°C° 0 mm 2 mps 757 mmHg 86%
    08:00 +29°C° 0 mm 2 mps 757 mmHg 77%
    09:00 +30°C° 0 mm 3 mps 757 mmHg 69%
    10:00 +33°C° 0 mm 3 mps 757 mmHg 60%
    11:00 +33°C° 0 mm 3 mps 756 mmHg 59%
    12:00 +33°C° 0 mm 3 mps 756 mmHg 57%
    13:00 +34°C° 0 mm 4 mps 756 mmHg 56%
    14:00 +34°C° 0 mm 4 mps 755 mmHg 57%
    15:00 +33°C° 0 mm 4 mps 755 mmHg 58%
    16:00 +33°C° 0 mm 4 mps 755 mmHg 59%
    17:00 +32°C° 0 mm 4 mps 756 mmHg 66%
    18:00 +29°C° 0 mm 4 mps 756 mmHg 74%
    19:00 +27°C° 0 mm 3 mps 757 mmHg 82%
    20:00 +26°C° 0 mm 3 mps 757 mmHg 85%
    21:00 +26°C° 0 mm 3 mps 758 mmHg 88%
    22:00 +25°C° 0 mm 3 mps 758 mmHg 90%
    23:00 +25°C° 0 mm 3 mps 758 mmHg 91%
    Show more